TimeEDT,TemperatureF,Dew PointF,Humidity,Sea Level PressureIn,VisibilityMPH,Wind Direction,Wind SpeedMPH,Gust SpeedMPH,PrecipitationIn,Events,Conditions,WindDirDegrees,DateUTC
12:15 AM,78.8,68.0,69,30.17,10.0,ESE,9.2,-,N/A,,Clear,110,2014-05-09 04:15:00
12:35 AM,78.8,69.8,74,30.17,10.0,ESE,10.4,-,N/A,,Clear,120,2014-05-09 04:35:00
12:55 AM,77.0,69.8,78,30.17,10.0,ESE,11.5,-,N/A,,Clear,110,2014-05-09 04:55:00
1:15 AM,77.0,69.8,78,30.16,10.0,ESE,9.2,-,N/A,,Clear,120,2014-05-09 05:15:00
1:35 AM,77.0,69.8,78,30.16,10.0,ESE,8.1,-,N/A,,Clear,120,2014-05-09 05:35:00
1:55 AM,77.0,69.8,78,30.15,10.0,ESE,6.9,-,N/A,,Clear,120,2014-05-09 05:55:00
2:15 AM,77.0,69.8,78,30.15,10.0,SE,5.8,-,N/A,,Clear,130,2014-05-09 06:15:00
2:35 AM,75.2,69.8,83,30.14,10.0,ESE,8.1,-,N/A,,Clear,120,2014-05-09 06:35:00
2:55 AM,75.2,69.8,83,30.14,10.0,ESE,8.1,-,N/A,,Clear,120,2014-05-09 06:55:00
3:15 AM,75.2,69.8,83,30.14,10.0,ESE,6.9,-,N/A,,Clear,120,2014-05-09 07:15:00
3:35 AM,75.2,69.8,83,30.14,10.0,ESE,4.6,-,N/A,,Clear,120,2014-05-09 07:35:00
3:55 AM,75.2,69.8,83,30.14,10.0,ESE,5.8,-,N/A,,Clear,110,2014-05-09 07:55:00
4:15 AM,73.4,69.8,88,30.14,10.0,ESE,8.1,-,N/A,,Clear,120,2014-05-09 08:15:00
4:35 AM,73.4,69.8,88,30.14,10.0,ESE,6.9,-,N/A,,Scattered Clouds,110,2014-05-09 08:35:00
4:55 AM,73.4,69.8,88,30.15,10.0,ESE,6.9,-,N/A,,Scattered Clouds,120,2014-05-09 08:55:00
5:15 AM,73.4,69.8,88,30.14,10.0,ESE,5.8,-,N/A,,Clear,120,2014-05-09 09:15:00
5:35 AM,73.4,69.8,88,30.15,10.0,ESE,4.6,-,N/A,,Clear,120,2014-05-09 09:35:00
5:55 AM,73.4,69.8,88,30.15,10.0,ESE,6.9,-,N/A,,Clear,120,2014-05-09 09:55:00
6:15 AM,73.4,69.8,88,30.15,10.0,ESE,5.8,-,N/A,,Clear,120,2014-05-09 10:15:00
6:35 AM,73.4,69.8,88,30.16,10.0,ESE,8.1,-,N/A,,Clear,120,2014-05-09 10:35:00
6:55 AM,73.4,69.8,88,30.17,10.0,ESE,8.1,-,N/A,,Clear,110,2014-05-09 10:55:00
7:15 AM,73.4,69.8,88,30.18,10.0,ESE,8.1,-,N/A,,Clear,120,2014-05-09 11:15:00
7:35 AM,75.2,69.8,83,30.18,10.0,ESE,8.1,-,N/A,,Clear,120,2014-05-09 11:35:00
7:55 AM,75.2,69.8,83,30.19,7.0,ESE,6.9,-,N/A,,Clear,120,2014-05-09 11:55:00
8:15 AM,77.0,69.8,78,30.19,10.0,SE,8.1,-,N/A,,Clear,130,2014-05-09 12:15:00
8:35 AM,77.0,71.6,83,30.19,10.0,ESE,9.2,-,N/A,,Clear,120,2014-05-09 12:35:00
8:55 AM,78.8,71.6,78,30.19,10.0,SE,10.4,-,N/A,,Clear,140,2014-05-09 12:55:00
9:15 AM,80.6,71.6,74,30.19,10.0,ESE,10.4,-,N/A,,Clear,120,2014-05-09 13:15:00
9:35 AM,80.6,69.8,70,30.19,10.0,SE,13.8,21.9,N/A,,Clear,140,2014-05-09 13:35:00
9:55 AM,82.4,69.8,66,30.19,10.0,SSE,11.5,-,N/A,,Scattered Clouds,150,2014-05-09 13:55:00
10:15 AM,82.4,69.8,66,30.19,10.0,SSE,12.7,-,N/A,,Clear,160,2014-05-09 14:15:00
10:35 AM,84.2,68.0,58,30.19,10.0,SSE,12.7,19.6,N/A,,Scattered Clouds,150,2014-05-09 14:35:00
10:55 AM,84.2,68.0,58,30.19,10.0,SSE,12.7,-,N/A,,Clear,150,2014-05-09 14:55:00
11:15 AM,86.0,68.0,55,30.19,10.0,SSE,12.7,17.3,N/A,,Clear,160,2014-05-09 15:15:00
11:35 AM,86.0,68.0,55,30.19,10.0,SE,10.4,-,N/A,,Scattered Clouds,140,2014-05-09 15:35:00
11:55 AM,86.0,68.0,55,30.19,10.0,SSE,10.4,-,N/A,,Scattered Clouds,150,2014-05-09 15:55:00
12:15 PM,86.0,68.0,55,30.19,10.0,SSE,8.1,-,N/A,,Scattered Clouds,160,2014-05-09 16:15:00
12:35 PM,87.8,68.0,52,30.18,10.0,SSE,9.2,-,N/A,,Scattered Clouds,160,2014-05-09 16:35:00
12:55 PM,87.8,68.0,52,30.17,10.0,SSE,11.5,-,N/A,,Clear,150,2014-05-09 16:55:00
1:15 PM,87.8,66.2,49,30.16,10.0,SE,10.4,-,N/A,,Clear,140,2014-05-09 17:15:00
1:35 PM,89.6,68.0,49,30.15,10.0,SSE,10.4,-,N/A,,Clear,150,2014-05-09 17:35:00
1:55 PM,89.6,66.2,46,30.14,10.0,SSE,12.7,-,N/A,,Clear,150,2014-05-09 17:55:00
2:15 PM,89.6,64.4,43,30.14,10.0,SE,9.2,-,N/A,,Clear,140,2014-05-09 18:15:00
2:35 PM,91.4,66.2,43,30.13,10.0,SE,11.5,-,N/A,,Clear,140,2014-05-09 18:35:00
2:55 PM,91.4,64.4,41,30.12,10.0,SE,11.5,16.1,N/A,,Clear,140,2014-05-09 18:55:00
3:15 PM,91.4,64.4,41,30.11,10.0,SSE,9.2,-,N/A,,Clear,160,2014-05-09 19:15:00
3:35 PM,91.4,64.4,41,30.10,10.0,SSE,11.5,-,N/A,,Clear,160,2014-05-09 19:35:00
3:55 PM,91.4,62.6,38,30.09,10.0,SE,10.4,-,N/A,,Clear,140,2014-05-09 19:55:00
4:15 PM,91.4,60.8,36,30.08,10.0,SE,12.7,-,N/A,,Clear,140,2014-05-09 20:15:00
4:35 PM,91.4,62.6,38,30.07,10.0,SSE,11.5,-,N/A,,Clear,150,2014-05-09 20:35:00
4:55 PM,91.4,62.6,38,30.07,10.0,South,12.7,-,N/A,,Scattered Clouds,170,2014-05-09 20:55:00
5:15 PM,89.6,66.2,46,30.06,10.0,South,4.6,-,N/A,,Clear,190,2014-05-09 21:15:00
5:35 PM,89.6,68.0,49,30.07,10.0,SSW,6.9,-,N/A,,Clear,200,2014-05-09 21:35:00
5:55 PM,89.6,68.0,49,30.07,10.0,South,5.8,-,N/A,,Clear,190,2014-05-09 21:55:00
6:15 PM,87.8,68.0,52,30.07,10.0,South,6.9,-,N/A,,Clear,180,2014-05-09 22:15:00
6:35 PM,87.8,68.0,52,30.07,10.0,SSW,4.6,-,N/A,,Clear,200,2014-05-09 22:35:00
6:55 PM,87.8,66.2,49,30.07,10.0,South,3.5,-,N/A,,Clear,180,2014-05-09 22:55:00
7:15 PM,86.0,68.0,55,30.07,10.0,SW,4.6,-,N/A,,Clear,230,2014-05-09 23:15:00
7:35 PM,86.0,66.2,51,30.07,10.0,SW,3.5,-,N/A,,Clear,220,2014-05-09 23:35:00
7:55 PM,86.0,64.4,48,30.07,10.0,Calm,Calm,-,N/A,,Clear,0,2014-05-09 23:55:00
8:15 PM,84.2,69.8,62,30.08,10.0,West,3.5,-,N/A,,Clear,280,2014-05-10 00:15:00
8:35 PM,82.4,69.8,66,30.08,10.0,NW,4.6,-,N/A,,Clear,320,2014-05-10 00:35:00
8:55 PM,82.4,69.8,66,30.09,10.0,NW,4.6,-,N/A,,Clear,310,2014-05-10 00:55:00
9:15 PM,80.6,69.8,70,30.09,10.0,NW,3.5,-,N/A,,Clear,310,2014-05-10 01:15:00
9:35 PM,80.6,68.0,65,30.09,10.0,NW,4.6,-,N/A,,Clear,320,2014-05-10 01:35:00
9:55 PM,80.6,69.8,70,30.10,10.0,WNW,3.5,-,N/A,,Clear,300,2014-05-10 01:55:00
10:15 PM,80.6,69.8,70,30.10,10.0,WNW,3.5,-,N/A,,Clear,300,2014-05-10 02:15:00
10:35 PM,78.8,69.8,74,30.10,10.0,Calm,Calm,-,N/A,,Clear,0,2014-05-10 02:35:00
10:55 PM,78.8,68.0,69,30.11,10.0,Calm,Calm,-,N/A,,Clear,0,2014-05-10 02:55:00
11:15 PM,80.6,64.4,58,30.11,10.0,SSE,9.2,-,N/A,,Clear,150,2014-05-10 03:15:00
11:35 PM,80.6,62.6,54,30.11,10.0,SSE,9.2,-,N/A,,Clear,150,2014-05-10 03:35:00
11:55 PM,78.8,62.6,57,30.11,10.0,ESE,4.6,-,N/A,,Clear,110,2014-05-10 03:55:00